TimeMDT,TemperatureF,Dew PointF,Humidity,Sea Level PressureIn,VisibilityMPH,Wind Direction,Wind SpeedMPH,Gust SpeedMPH,PrecipitationIn,Events,Conditions,WindDirDegrees,DateUTC
12:56 AM,46.0,24.1,42,30.17,10.0,Calm,Calm,-,N/A,,Clear,0,2011-10-31 06:56:00
1:56 AM,48.0,24.1,39,30.16,10.0,Calm,Calm,-,N/A,,Clear,0,2011-10-31 07:56:00
2:56 AM,46.0,25.0,44,30.14,10.0,NE,4.6,-,N/A,,Clear,40,2011-10-31 08:56:00
3:56 AM,44.1,25.0,47,30.13,10.0,Calm,Calm,-,N/A,,Clear,0,2011-10-31 09:56:00
4:56 AM,44.1,25.0,47,30.13,10.0,North,8.1,-,N/A,,Clear,10,2011-10-31 10:56:00
5:56 AM,43.0,26.1,51,30.14,10.0,North,8.1,-,N/A,,Clear,360,2011-10-31 11:56:00
6:56 AM,43.0,25.0,49,30.14,10.0,North,6.9,-,N/A,,Clear,10,2011-10-31 12:56:00
7:56 AM,43.0,25.0,49,30.17,10.0,North,8.1,-,N/A,,Clear,10,2011-10-31 13:56:00
8:56 AM,45.0,26.1,48,30.17,10.0,North,5.8,-,N/A,,Partly Cloudy,10,2011-10-31 14:56:00
9:56 AM,48.9,27.0,43,30.16,10.0,Calm,Calm,-,N/A,,Partly Cloudy,0,2011-10-31 15:56:00
10:56 AM,52.0,26.1,37,30.16,10.0,Calm,Calm,-,N/A,,Scattered Clouds,0,2011-10-31 16:56:00
11:56 AM,59.0,25.0,27,30.13,10.0,Calm,Calm,-,N/A,,Scattered Clouds,0,2011-10-31 17:56:00
12:56 PM,62.1,24.1,23,30.09,10.0,Calm,Calm,-,N/A,,Scattered Clouds,0,2011-10-31 18:56:00
1:56 PM,64.0,21.9,20,30.04,10.0,South,6.9,-,N/A,,Scattered Clouds,190,2011-10-31 19:56:00
2:56 PM,66.9,23.0,19,30.00,10.0,Variable,3.5,-,N/A,,Partly Cloudy,0,2011-10-31 20:56:00
3:56 PM,68.0,23.0,18,29.99,10.0,Calm,Calm,-,N/A,,Partly Cloudy,0,2011-10-31 21:56:00
4:56 PM,69.1,23.0,18,29.97,10.0,Calm,Calm,-,N/A,,Partly Cloudy,0,2011-10-31 22:56:00
5:56 PM,68.0,21.9,17,29.97,10.0,Calm,Calm,-,N/A,,Partly Cloudy,0,2011-10-31 23:56:00
6:56 PM,64.0,23.0,21,29.99,10.0,South,4.6,-,N/A,,Partly Cloudy,180,2011-11-01 00:56:00
7:56 PM,59.0,23.0,25,30.01,10.0,East,3.5,-,N/A,,Partly Cloudy,80,2011-11-01 01:56:00
8:56 PM,57.0,26.1,30,30.01,10.0,ENE,8.1,-,N/A,,Clear,60,2011-11-01 02:56:00
9:56 PM,53.1,25.0,34,30.01,10.0,ESE,9.2,-,N/A,,Clear,120,2011-11-01 03:56:00
10:56 PM,52.0,25.0,35,30.00,10.0,ESE,3.5,-,N/A,,Clear,120,2011-11-01 04:56:00
11:56 PM,52.0,25.0,35,29.98,10.0,Calm,Calm,-,N/A,,Clear,0,2011-11-01 05:56:00